Location: Calvatone
(45.1167°N, 10.4333°E)
Time: 16:24:09
(UTC+00:00)

BlueWalker 3 - Pass Details

Date: 08 June 2023
Orbit: 491 x 508 km, 53.2° (Epoch: 28 September)

Event Time Altitude Azimuth Distance (km) Brightness Sun altitude
Rises 21:08:19 0° 303° (WNW) 2,580 6.7 -15.9°
Reaches altitude 10° 21:10:37 10° 311° (NW) 1,699 5.8 -16.1°
Maximum altitude 21:14:12 37° 21° (NNE) 788 3.2 -16.4°
Enters shadow 21:17:20 13° 87° (E) 1,529 4.1 -16.7°
